Location: ??
(34.9170°N, 135.5016°E)
Time: 16:06:23
(UTC+00:00)

deb Explorer IX - Visible Passes

Search period start: 26 February 2021 00:00
Search period end: 08 March 2021 00:00
Orbit: 537 x 1102 km, 38.8° (Epoch: 25 February)

Date Brightness Start Highest point End Pass type
(mag) Time Alt. Az. Time Alt. Az. Time Alt. Az.
26 Feb ? 18:37:18 15° E 18:37:18 15° E 18:38:12 10° ENE visible
26 Feb ? 20:18:33 27° WNW 20:20:42 58° N 20:25:24 10° ENE visible
27 Feb ? 19:56:07 46° WNW 19:57:02 57° N 20:01:36 10° ENE visible
28 Feb ? 19:33:38 55° N 19:33:38 55° N 19:37:49 10° ENE visible
01 Mar ? 19:11:09 36° NE 19:11:09 36° NE 19:14:02 10° ENE visible
01 Mar ? 20:52:36 10° WNW 20:56:48 57° N 21:01:33 10° E visible
02 Mar ? 18:48:38 22° ENE 18:48:38 22° ENE 18:50:17 10° ENE visible
02 Mar ? 20:29:54 16° WNW 20:33:07 56° N 20:37:43 10° E visible
03 Mar ? 18:26:08 12° ENE 18:26:08 12° ENE 18:26:33 10° ENE visible
03 Mar ? 20:07:23 27° WNW 20:09:27 55° N 20:13:55 10° E visible
04 Mar ? 19:44:54 44° NW 19:45:47 55° N 19:50:06 10° E visible
05 Mar ? 19:22:26 53° NNE 19:22:26 53° NNE 19:26:20 10° E visible
06 Mar ? 19:00:01 33° ENE 19:00:01 33° ENE 19:02:35 10° E visible
06 Mar ? 20:41:16 11° WNW 20:45:11 57° SSW 20:49:39 10° SE visible
07 Mar ? 18:37:38 18° E 18:37:38 18° E 18:38:51 10° E visible
07 Mar ? 20:18:54 21° W 20:21:30 57° SSW 20:25:49 10° SE visible
